Waarnemingen

Advertentie
Mijn weer
Cazaux, Frankrijk (7502): temperatuur & dauwpunt: 17.01.2018 05:00:00 - 23.01.2018 05:00:00 (CET)Cazaux, Frankrijk (7502): windsnelheid & windstoten: 17.01.2018 05:00:00 - 23.01.2018 05:00:00 (CET)Cazaux, Frankrijk (7502): windrichting: 17.01.2018 05:00:00 - 23.01.2018 05:00:00 (CET)Cazaux, Frankrijk (7502): luchtdruk: 17.01.2018 05:00:00 - 23.01.2018 05:00:00 (CET)Cazaux, Frankrijk (7502): zicht: 17.01.2018 05:00:00 - 23.01.2018 05:00:00 (CET)Cazaux, Frankrijk (7502): neerslag: 17.01.2018 05:00:00 - 23.01.2018 05:00:00 (CET)
Datum & Tijd tt [°C] td [°C] ff [km/u] ff [kn] fx [km/u] fx [kn] dd ppp [hPa] vv [km] rr [mm]
23.01.2018 05:00:00 - - - - - - - - - -
23.01.2018 04:00:00 8,2 8,1 5 3 11 6 Z 1028,3 0,3 -
23.01.2018 03:00:00 8,9 8,8 5 3 8 4 Z 1028,5 0,1 0,0
23.01.2018 02:00:00 7,9 7,8 5 3 9 5 OZO 1028,5 0,1 0,0
23.01.2018 01:00:00 7,4 7,1 8 4 9 5 ZW 1028,7 0,1 -
23.01.2018 00:00:00 7,8 7,5 2 1 8 4 Z 1028,7 0,1 0,0
22.01.2018 23:00:00 8,6 8,3 4 2 5 3 Z 1028,6 0,3 0,0
22.01.2018 22:00:00 9,5 8,9 4 2 11 6 WZW 1028,5 0,6 -
22.01.2018 21:00:00 11,1 10,5 5 3 13 7 W 1028,0 5 0,0
22.01.2018 20:00:00 11,8 11,0 8 4 16 9 W 1028,0 8 0,0
22.01.2018 19:00:00 12,4 11,5 9 5 26 14 W 1027,5 10 -
22.01.2018 18:00:00 12,9 12,0 15 8 35 19 W 1026,7 10 0,0
22.01.2018 17:00:00 12,9 11,6 21 11 39 21 W 1026,0 16 0,0
22.01.2018 16:00:00 13,0 11,9 24 13 55 30 W 1025,4 18 -
22.01.2018 15:00:00 13,1 12,3 31 17 59 32 W 1024,8 6 0,0
22.01.2018 14:00:00 12,9 12,3 34 18 57 31 W 1024,9 7 0,2
22.01.2018 13:00:00 13,2 12,1 29 16 55 30 W 1025,5 9 -
22.01.2018 12:00:00 12,9 12,0 28 15 50 27 WZW 1025,9 8 0,0
22.01.2018 11:00:00 13,0 11,7 28 15 50 27 WZW 1025,9 10 0,0
22.01.2018 10:00:00 12,7 11,9 24 13 50 27 WZW 1025,6 14 -
22.01.2018 09:00:00 12,7 11,8 22 12 41 22 WZW 1025,5 10 0,0
22.01.2018 08:00:00 12,6 11,5 22 12 44 24 W 1025,6 18 0,0
22.01.2018 07:00:00 12,4 11,3 22 12 46 25 W 1025,6 10 -
22.01.2018 06:00:00 12,3 11,0 28 15 52 28 W 1025,6 7 0,0
22.01.2018 05:00:00 12,4 11,6 21 11 42 23 W 1025,6 10 0,4
22.01.2018 04:00:00 12,7 11,8 21 11 39 21 WZW 1025,8 7 -
22.01.2018 03:00:00 12,9 11,6 18 10 37 20 W 1026,0 10 0,0
22.01.2018 02:00:00 12,6 11,8 16 9 42 23 W 1026,3 10 0,2
22.01.2018 01:00:00 12,6 11,8 21 11 44 24 W 1026,3 14 -
22.01.2018 00:00:00 12,7 12,1 18 10 35 19 W 1026,5 10 0,0
21.01.2018 23:00:00 12,7 11,9 21 11 42 23 W 1026,5 10 0,0
21.01.2018 22:00:00 12,5 11,9 21 11 44 24 W 1026,6 40 -
21.01.2018 21:00:00 12,7 12,1 18 10 37 20 W 1026,8 10 0,0
21.01.2018 20:00:00 12,8 11,9 18 10 41 22 W 1026,6 10 0,0
21.01.2018 19:00:00 12,5 12,0 21 11 41 22 W 1026,5 9 -
21.01.2018 18:00:00 12,7 12,1 18 10 48 26 W 1026,3 4,5 0,2
21.01.2018 17:00:00 12,8 12,2 24 13 44 24 W 1026,1 12 0,0
21.01.2018 16:00:00 12,9 12,1 24 13 46 25 W 1025,8 5 -
21.01.2018 15:00:00 12,9 12,4 21 11 44 24 W 1025,8 5 0,0
21.01.2018 14:00:00 13,0 12,5 24 13 46 25 W 1025,6 6 0,0
21.01.2018 13:00:00 13,1 12,6 26 14 50 27 W 1025,9 2,9 -
21.01.2018 12:00:00 13,3 13,0 26 14 54 29 W 1025,7 9 0,0
21.01.2018 11:00:00 13,2 12,9 26 14 48 26 WNW 1025,2 4,4 0,0
21.01.2018 10:00:00 13,0 12,5 24 13 54 29 W 1024,3 3,3 -
21.01.2018 09:00:00 12,9 12,4 24 13 48 26 W 1023,7 3,6 0,2
21.01.2018 08:00:00 13,2 12,4 28 15 50 27 WNW 1023,2 10 0,0
21.01.2018 07:00:00 13,0 12,5 28 15 50 27 W 1022,8 3,6 -
21.01.2018 06:00:00 13,0 12,5 26 14 59 32 W 1022,7 7 0,0
21.01.2018 05:00:00 13,0 12,7 28 15 48 26 W 1022,5 6 0,0
21.01.2018 04:00:00 13,0 12,5 26 14 46 25 W 1022,4 3,2 -
21.01.2018 03:00:00 13,1 12,6 29 16 57 31 W 1022,3 7 0,0
21.01.2018 02:00:00 13,1 12,6 29 16 57 31 W 1022,0 7 0,0
21.01.2018 01:00:00 13,1 12,6 34 18 54 29 W 1021,6 4,6 -
21.01.2018 00:00:00 13,0 12,5 29 16 55 30 W 1021,2 10 0,0
20.01.2018 23:00:00 13,1 12,5 34 18 57 31 W 1020,8 7 0,0
20.01.2018 22:00:00 13,1 12,3 31 17 59 32 W 1020,7 5 -
20.01.2018 21:00:00 13,1 12,3 31 17 61 33 W 1020,1 7 0,0
20.01.2018 20:00:00 13,3 12,4 34 18 61 33 W 1019,4 10 0,0
20.01.2018 19:00:00 13,4 12,3 34 18 65 35 W 1019,0 10 -
20.01.2018 18:00:00 13,2 12,6 37 20 65 35 W 1018,4 6 0,4
20.01.2018 17:00:00 13,2 12,6 35 19 65 35 W 1017,7 3,8 1,0
20.01.2018 16:00:00 13,3 12,7 29 16 70 38 W 1017,0 6 -
20.01.2018 15:00:00 13,1 12,5 39 21 72 39 W 1016,7 6 0,0
20.01.2018 14:00:00 12,8 12,0 41 22 68 37 W 1016,5 5 0,8
20.01.2018 13:00:00 12,6 11,7 39 21 68 37 W 1017,1 4,9 -
20.01.2018 12:00:00 12,6 11,5 34 18 72 39 W 1017,7 5 0,2
20.01.2018 11:00:00 12,3 11,0 35 19 63 34 WZW 1017,8 7 0,9
20.01.2018 10:00:00 11,5 10,7 29 16 59 32 WZW 1017,5 4,1 -
20.01.2018 09:00:00 11,6 10,2 31 17 61 33 WZW 1017,9 6 2,0
20.01.2018 08:00:00 11,9 8,7 31 17 52 28 WZW 1018,0 10 0,0
20.01.2018 07:00:00 11,3 9,4 26 14 42 23 ZW 1018,5 10 -
20.01.2018 06:00:00 11,4 7,9 22 12 48 26 ZW 1019,7 10 0,0
20.01.2018 05:00:00 11,1 7,0 15 8 26 14 ZW 1020,9 10 0,0
20.01.2018 04:00:00 10,6 7,5 13 7 21 11 ZW 1022,0 19 -
20.01.2018 03:00:00 10,2 6,3 9 5 21 11 WZW 1022,9 10 0,0
20.01.2018 02:00:00 8,3 6,9 8 4 11 6 WZW 1023,7 18 0,0
20.01.2018 01:00:00 8,4 5,5 5 3 24 13 WZW 1024,1 35 -
20.01.2018 00:00:00 9,2 5,6 11 6 18 10 WZW 1024,6 10 0,0
19.01.2018 23:00:00 8,8 5,7 16 9 41 22 WNW 1024,6 10 0,4
19.01.2018 22:00:00 9,9 4,3 15 8 28 15 WNW 1024,2 50 -
19.01.2018 21:00:00 9,9 4,5 15 8 34 18 WNW 1023,5 10 0,0
19.01.2018 20:00:00 10,0 3,9 18 10 37 20 WNW 1022,8 10 0,0
19.01.2018 19:00:00 10,0 7,1 11 6 39 21 W 1022,4 45 -
19.01.2018 18:00:00 10,0 6,7 28 15 46 25 NW 1022,1 10 0,2
19.01.2018 17:00:00 10,6 8,0 18 10 44 24 W 1021,2 10 0,4
19.01.2018 16:00:00 12,2 6,9 21 11 37 20 W 1020,7 19 -
19.01.2018 15:00:00 12,2 7,1 16 9 29 16 WNW 1020,8 10 0,0
19.01.2018 14:00:00 11,9 7,2 18 10 31 17 W 1021,0 19 0,0
19.01.2018 13:00:00 12,5 7,4 18 10 31 17 WNW 1020,9 19 -
19.01.2018 12:00:00 12,1 8,0 15 8 22 12 WNW 1021,3 10 0,0
19.01.2018 11:00:00 10,5 9,1 15 8 34 18 WNW 1021,5 10 1,0
19.01.2018 10:00:00 10,4 9,3 5 3 22 12 WNW 1020,7 10 -
19.01.2018 09:00:00 10,3 8,6 16 9 46 25 NW 1020,0 10 0,2
19.01.2018 08:00:00 10,8 8,7 8 4 16 9 W 1020,0 10 0,0
19.01.2018 07:00:00 10,5 9,3 5 3 15 8 W 1019,9 9 -
19.01.2018 06:00:00 10,0 8,9 8 4 18 10 W 1019,4 10 0,0
19.01.2018 05:00:00 10,9 9,8 13 7 22 12 WNW 1019,6 6 0,0
19.01.2018 04:00:00 11,3 10,0 8 4 18 10 WNW 1019,7 10 -
19.01.2018 03:00:00 11,7 11,2 9 5 21 11 W 1019,5 10 0,0
19.01.2018 02:00:00 11,6 11,1 13 7 35 19 W 1019,8 10 0,4
19.01.2018 01:00:00 12,3 11,8 28 15 54 29 W 1019,8 5 -
19.01.2018 00:00:00 12,5 11,9 18 10 35 19 WZW 1020,3 10 0,2
18.01.2018 23:00:00 12,3 11,8 21 11 37 20 W 1020,2 10 0,4
18.01.2018 22:00:00 12,2 11,7 16 9 41 22 W 1020,3 10 -
18.01.2018 21:00:00 12,0 11,5 18 10 37 20 WZW 1020,4 5 0,4
18.01.2018 20:00:00 11,8 11,3 21 11 37 20 WZW 1020,5 4,7 0,0
18.01.2018 19:00:00 11,6 11,0 21 11 34 18 WZW 1020,4 10 -
18.01.2018 18:00:00 11,7 10,8 18 10 35 19 WZW 1020,2 10 0,2
18.01.2018 17:00:00 11,8 10,9 15 8 46 25 WZW 1020,6 10 0,0
18.01.2018 16:00:00 11,8 11,0 18 10 39 21 W 1020,6 10 -
18.01.2018 15:00:00 11,7 10,9 21 11 46 25 WZW 1020,8 10 0,2
18.01.2018 14:00:00 11,7 10,9 22 12 44 24 WZW 1021,4 9 0,2
18.01.2018 13:00:00 11,4 10,6 21 11 37 20 ZW 1022,1 4,6 -
18.01.2018 12:00:00 11,3 10,2 18 10 35 19 WZW 1022,8 4,2 0,2
18.01.2018 11:00:00 11,3 9,2 21 11 37 20 ZW 1023,2 6 0,0
18.01.2018 10:00:00 11,1 8,3 16 9 31 17 WZW 1023,1 10 -
18.01.2018 09:00:00 11,5 7,8 15 8 41 22 WZW 1022,9 10 0,0
18.01.2018 08:00:00 11,7 6,8 24 13 39 21 WZW 1022,7 10 0,0
18.01.2018 07:00:00 11,4 7,5 18 10 37 20 W 1022,8 10 -
18.01.2018 06:00:00 11,6 6,1 21 11 46 25 W 1023,2 10 0,0
18.01.2018 05:00:00 11,4 6,5 16 9 39 21 WZW 1023,5 10 0,0
18.01.2018 04:00:00 11,6 5,0 21 11 34 18 WZW 1023,8 10 -
18.01.2018 03:00:00 11,2 5,5 16 9 37 20 WZW 1024,4 10 0,0
18.01.2018 02:00:00 11,2 6,3 15 8 34 18 WZW 1025,0 10 0,0
18.01.2018 01:00:00 10,9 6,0 13 7 26 14 WZW 1025,6 10 -
18.01.2018 00:00:00 10,3 5,7 13 7 28 15 WZW 1025,8 10 0,0
17.01.2018 23:00:00 10,4 6,2 16 9 29 16 W 1026,1 10 0,0
17.01.2018 22:00:00 9,6 5,0 11 6 21 11 W 1026,3 10 -
17.01.2018 21:00:00 9,4 5,2 11 6 24 13 W 1026,8 10 0,0
17.01.2018 20:00:00 9,1 4,9 8 4 18 10 W 1026,6 10 0,0
17.01.2018 19:00:00 9,7 4,5 16 9 37 20 WNW 1026,6 10 -
17.01.2018 18:00:00 9,3 6,0 9 5 31 17 W 1026,6 10 0,0
17.01.2018 17:00:00 11,0 5,7 16 9 31 17 W 1026,4 10 0,0
17.01.2018 16:00:00 11,4 5,5 18 10 35 19 WNW 1026,0 10 -
17.01.2018 15:00:00 11,7 5,1 24 13 48 26 WNW 1026,0 10 0,0
17.01.2018 14:00:00 10,2 6,3 13 7 39 21 W 1026,7 10 0,6
17.01.2018 13:00:00 11,9 5,3 22 12 41 22 WNW 1026,6 10 -
17.01.2018 12:00:00 11,3 4,5 28 15 42 23 WNW 1026,6 10 0,0
17.01.2018 11:00:00 9,7 6,6 18 10 44 24 WNW 1026,2 10 1,0
17.01.2018 10:00:00 9,6 5,8 16 9 48 26 W 1025,4 10 -
17.01.2018 09:00:00 10,2 5,4 22 12 44 24 WNW 1024,0 10 0,0
17.01.2018 08:00:00 9,6 5,8 21 11 72 39 W 1023,1 10 0,2
17.01.2018 07:00:00 10,6 4,7 28 15 55 30 WNW 1022,1 10 -
17.01.2018 06:00:00 9,3 5,3 31 17 55 30 WNW 1021,7 10 0,4
17.01.2018 05:00:00 9,0 7,3 26 14 59 32 W 1021,6 9 3,0

tt = temperatuur
td = dauwpunt
ff = windsnelheid
fx = windstoten
dd = windrichting
ppp = luchtdruk
vv = zicht
rr = neerslag

Weerstations in de omgeving